| time (UTC) | temp F | wind direction | speed knots | gust knots | rain 1hr in | rain 24hr in | rain mn in | humidity % | barometer mb |
| 20260504060120 | 40 | 202 | 0.0 | 0.0 | 0.00 | 0.00 | 0.00 | 100 | 560.1 |
| 20260504045120 | 40 | 180 | 0.0 | 0.0 | 0.00 | 0.00 | 0.00 | 100 | 560.1 |
| 20260504044118 | 38 | 180 | 0.0 | 0.0 | 0.00 | 0.00 | 0.00 | 100 | 560.1 |
| 20260504043120 | 40 | 180 | 0.0 | 0.0 | 0.00 | 0.00 | 0.00 | 100 | 560.1 |
| 20260504042118 | 40 | 180 | 0.0 | 0.0 | 0.00 | 0.00 | 0.00 | 100 | 560.1 |
| 20260504041119 | 40 | 180 | 0.0 | 0.0 | 0.00 | 0.00 | 0.00 | 100 | 560.1 |
| 20260504040117 | 41 | 360 | 0.0 | 0.0 | 0.00 | 0.00 | 0.00 | 100 | 560.1 |
| 20260504035126 | 41 | 180 | 0.0 | 0.0 | 0.00 | 0.00 | 0.00 | 100 | 560.1 |
| 20260504034126 | 41 | 180 | 0.0 | 0.0 | 0.00 | 0.00 | 0.00 | 100 | 560.1 |
| 20260504034025 | 41 | 180 | 0.0 | 0.0 | 0.00 | 0.00 | 0.00 | 100 | 560.1 |
| 20260504032125 | 43 | 180 | 0.0 | 0.0 | 0.00 | 0.00 | 0.00 | 100 | 560.1 |
| 20260504031123 | 43 | 180 | 0.0 | 0.0 | 0.00 | 0.00 | 0.00 | 100 | 560.1 |
| 20260504030125 | 43 | 180 | 0.0 | 0.0 | 0.00 | 0.00 | 0.00 | 100 | 560.1 |
| 20260504025124 | 43 | 180 | 0.0 | 0.0 | 0.00 | 0.00 | 0.00 | 100 | 560.1 |
| 20260504024127 | 44 | 180 | 0.0 | 0.0 | 0.00 | 0.00 | 0.00 | 100 | 560.1 |
| 20260504023224 | 44 | 180 | 0.0 | 0.0 | 0.00 | 0.00 | 0.00 | 100 | 560.1 |
| 20260504023125 | 44 | 180 | 0.0 | 0.0 | 0.00 | 0.00 | 0.00 | 100 | 560.1 |
| 20260504020227 | 46 | 180 | 0.0 | 0.0 | 0.00 | 0.00 | 0.00 | 100 | 560.1 |
| 20260504013423 | 47 | 180 | 0.0 | 0.0 | 0.00 | 0.00 | 0.00 | 100 | 560.1 |
| 20260504012426 | 48 | 202 | 0.0 | 0.0 | 0.00 | 0.00 | 0.00 | 100 | 560.1 |
| 20260504011424 | 48 | 202 | 0.0 | 0.0 | 0.00 | 0.00 | 0.00 | 100 | 560.1 |
| 20260504010426 | 48 | 202 | 0.0 | 0.0 | 0.00 | 0.00 | 0.00 | 100 | 560.1 |
| 20260504005424 | 49 | 202 | 0.0 | 0.0 | 0.00 | 0.00 | 0.00 | 100 | 560.1 |
| 20260504005326 | 48 | 202 | 0.0 | 0.0 | 0.00 | 0.00 | 0.00 | 100 | 560.1 |
| 20260504004326 | 51 | 202 | 0.0 | 0.0 | 0.00 | 0.00 | 0.00 | 100 | 560.1 |
| 20260504003327 | 53 | 202 | 0.0 | 0.0 | 0.00 | 0.00 | 0.00 | 100 | 560.1 |
| 20260504002424 | 54 | 202 | 0.0 | 0.0 | 0.00 | 0.00 | 0.00 | 100 | 560.1 |
| 20260504000424 | 56 | 199 | 0.0 | 0.0 | 0.00 | 0.00 | 0.00 | 100 | 560.1 |
| 20260503235426 | 57 | 225 | 0.0 | 0.0 | 0.00 | 0.00 | 0.00 | 100 | 560.1 |
| 20260503234426 | 59 | 202 | 0.0 | 0.0 | 0.00 | 0.00 | 0.00 | 100 | 560.1 |
| 20260503232326 | 62 | 315 | 0.0 | 0.0 | 0.00 | 0.00 | 0.00 | 100 | 560.1 |
| 20260503231423 | 64 | 202 | 0.0 | 0.0 | 0.00 | 0.00 | 0.00 | 100 | 560.1 |
| 20260503230423 | 66 | 292 | 0.0 | 0.0 | 0.00 | 0.00 | 0.00 | 100 | 560.1 |
| 20260503225425 | 65 | 315 | 0.0 | 1.7 | 0.00 | 0.00 | 0.00 | 100 | 560.1 |
| 20260503224424 | 66 | 282 | 0.0 | 0.0 | 0.00 | 0.00 | 0.00 | 100 | 560.1 |
| 20260503223425 | 65 | 315 | 0.0 | 0.0 | 0.00 | 0.00 | 0.00 | 100 | 560.1 |
| 20260503221523 | 63 | 304 | 1.7 | 4.3 | 0.00 | 0.00 | 0.00 | 100 | 560.1 |
| 20260503220526 | 63 | 292 | 0.0 | 2.6 | 0.00 | 0.00 | 0.00 | 100 | 560.1 |
| 20260503215624 | 63 | 274 | 0.9 | 3.5 | 0.00 | 0.00 | 0.00 | 100 | 560.1 |
| 20260503214624 | 63 | 287 | 0.0 | 2.6 | 0.00 | 0.00 | 0.00 | 100 | 560.1 |
| 20260503213624 | 63 | 263 | 0.9 | 4.3 | 0.00 | 0.00 | 0.00 | 100 | 560.1 |
| 20260503212624 | 63 | 212 | 0.9 | 3.5 | 0.00 | 0.00 | 0.00 | 100 | 560.1 |
| 20260503211623 | 63 | 235 | 5.2 | 10.4 | 0.00 | 0.00 | 0.00 | 100 | 560.1 |
| 20260503210624 | 63 | 245 | 2.6 | 5.2 | 0.00 | 0.00 | 0.00 | 100 | 560.1 |
| 20260503205724 | 62 | 22 | 0.0 | 0.9 | 0.00 | 0.00 | 0.00 | 100 | 560.1 |
| 20260503204727 | 63 | 264 | 0.9 | 7.0 | 0.00 | 0.00 | 0.00 | 100 | 560.1 |
| 20260503202727 | 63 | 46 | 1.7 | 4.3 | 0.00 | 0.00 | 0.00 | 100 | 560.1 |
| 20260503201724 | 62 | 332 | 0.9 | 3.5 | 0.00 | 0.00 | 0.00 | 100 | 560.1 |
| 20260503200724 | 62 | 14 | 3.5 | 5.2 | 0.00 | 0.00 | 0.00 | 100 | 560.1 |
| 20260503193925 | 61 | 85 | 2.6 | 7.8 | 0.00 | 0.00 | 0.00 | 100 | 560.1 |
| 20260503192926 | 61 | 234 | 0.0 | 2.6 | 0.00 | 0.00 | 0.00 | 100 | 560.1 |
| 20260503191923 | 60 | 337 | 2.6 | 7.0 | 0.00 | 0.00 | 0.00 | 100 | 560.1 |
| 20260503185924 | 60 | 311 | 1.7 | 4.3 | 0.00 | 0.00 | 0.00 | 100 | 560.1 |
| 20260503184926 | 60 | 315 | 0.0 | 0.0 | 0.00 | 0.00 | 0.00 | 100 | 560.1 |
| 20260503182925 | 58 | 295 | 0.0 | 0.0 | 0.00 | 0.00 | 0.00 | 100 | 560.1 |
| 20260503181925 | 58 | 360 | 0.0 | 0.0 | 0.00 | 0.00 | 0.00 | 100 | 560.1 |
| 20260503180926 | 58 | 348 | 1.7 | 4.3 | 0.00 | 0.00 | 0.00 | 100 | 560.1 |
| 20260503180024 | 57 | 289 | 0.0 | 0.0 | 0.00 | 0.00 | 0.00 | 100 | 560.1 |
| 20260503175025 | 57 | 316 | 0.9 | 3.5 | 0.00 | 0.00 | 0.00 | 100 | 560.1 |
| 20260503174024 | 57 | 339 | 2.6 | 6.1 | 0.00 | 0.00 | 0.00 | 100 | 560.1 |
| 20260503173024 | 56 | 152 | 3.5 | 7.8 | 0.00 | 0.00 | 0.00 | 100 | 560.1 |
| 20260503172025 | 56 | 285 | 0.0 | 3.5 | 0.00 | 0.00 | 0.00 | 100 | 560.1 |
| 20260503170123 | 55 | 312 | 0.0 | 2.6 | 0.00 | 0.00 | 0.00 | 100 | 560.1 |
| 20260503150124 | 51 | 306 | 2.6 | 7.0 | 0.00 | 0.00 | 0.00 | 100 | 560.1 |
| 20260503130525 | 46 | 315 | 0.0 | 0.0 | 0.00 | 0.00 | 0.00 | 100 | 560.1 |
| 20260503110223 | 34 | 180 | 0.0 | 0.0 | 0.00 | 0.00 | 0.00 | 100 | 560.1 |
| 20260503090325 | 38 | 180 | 0.0 | 0.0 | 0.00 | 0.00 | 0.00 | 100 | 560.1 |
| 20260503072524 | 38 | 180 | 0.0 | 0.0 | 0.00 | 0.00 | 0.00 | 100 | 560.1 |
| 20260503071525 | 39 | 180 | 0.0 | 0.0 | 0.00 | 0.00 | 0.00 | 100 | 560.1 |